Погода в Грибоедове

Россия / Тульская область     53°34′09″N   38°51′47″E
темп.,
°C
ветер,
м/с
пор.,
м/с
влажн.,
%
обл.,
%
осадки,
мм/ч
давл.,
гПа
погр.,
м
20 апреля, вт
вт2000:00+6в61190100 0.1 1019603
03:00+5в61285100 0.1 1019475
06:00+5в61288100 0.0 1018551
09:00+5в71194100 0.0 1017610
12:00+4в61196100 0.4 1017643
15:00+4всв61195100 1.8 1015670
18:00+4всв71193100 0.0 1012626
21:00+3всв71295100 0.3 1010575
21 апреля, ср
ср2100:00+2св61298100 2.8 1006454
03:00+1с35100100 7.8 1003163
06:00+1з22100100 5.1 100289
09:00+1з36100100 7.7 1005250
12:00+2зюз4898100 0.0 1008579
15:00+4зюз4894100 0.0 1010777
18:00+5юз3694100 0.0 1012259
21:00+4ю2292100 0.1 101441
22 апреля, чт
чт2200:00+5ююз3797100 0.2 1014191
03:00+4юз3697100 0.3 1015197
06:00+3зюз379615 0.1 1017235
09:00+7юз477811 0.1 1018685
12:00+10юз576669 0.1 10181271
15:00+13ююз685855 0.2 10181611
18:00+12ююз596423 0.1 1018530
21:00+8ю388833 0.4 1019195
23 апреля, пт
пт2300:00+7ю410926 0.0 1019230
03:00+7ю4119292 0.3 1019240
06:00+7ю4128697 0.1 1019251
09:00+12ююз5116776 0.1 1019475
12:00+16ююз7945100 0.0 10182481
15:00+15ю6105399 0.0 10171009
18:00+14ю610568 0.0 1016613
21:00+10ююв513715 0.0 1016353
24 апреля, сб
сб2400:00+9ююв513805 0.1 1014287
03:00+8ююв5128431 0.1 1012289
06:00+7ю499183 0.0 1012224
09:00+10ю4782100 0.1 1010506
12:00+4зсз7994100 1.3 1010390
15:00+4зсз61093100 4.4 1011617
18:00+7з597090 0.5 10101126
21:00+4з612771 0.5 1011458